Main page
METAR-TAF:

METAR-TAF

Airports :

Lavan Airport

Lavan Island, Iran

latitude: 26-48-37N, longitude: 53-21-22E, elevation: 23 m

Current weather observation

The report was made 5 hours and 38 minutes ago, at 14:00 UTC
Wind 4 kt from the Southeast
Temperature 30°C
Humidity 35%
Pressure 1008 hPa
Visibility: 8000 m

METAR: OIBV 191400Z 14004KT 8000 NSC 30/13 Q1008

Time: 00:08 (19:38 UTC)


TAF: missing

Weather observations and forecasts of more than 4000 airports (METAR and TAF reports).

The available stations are represented by yellow and red dots on the map.

Hover mouse over dot to see the name of the station.

Then click to see weather observations and forecasts.

To change the map : click on the green buttons with a black cross to zoom in, on the green button with a dash to zoom out, or on the green arrows for adjacent maps.


METAR-TAF: